Погода в Андреевке

Россия / Белгородская область     50°56′06″N   38°02′49″E
темп.,
°C
ветер,
м/с
пор.,
м/с
влажн.,
%
обл.,
%
осадки,
мм/ч
давл.,
гПа
погр.,
м
18 апреля, вс
вс1800:00+7ююз368094 0.0 1019217
03:00+5юз358978 0.1 1019156
06:00+6ююз258970 0.4 1018303
09:00+8юз346990 0.5 1018803
12:00+11ююз455593 0.2 10171519
15:00+10зюз4562100 0.6 10171164
18:00+8ююз3481100 1.6 1018806
21:00+6ю1290100 6.9 1018371
19 апреля, пн
пн1900:00+5ю2291100 9.3 1017245
03:00+6ююз239289 9.6 1017207
06:00+5зюз249287 0.1 101796
09:00+7з238297 0.2 1017367
12:00+10зсз236183 0.1 10161099
15:00+11зюз3356100 0.2 10161273
18:00+10ссв0166100 0.0 101622
21:00+8в237590 0.0 101661
20 апреля, вт
вт2000:00+6в22805 0.0 101625
03:00+5всв348675 0.0 101570
06:00+6всв3883100 0.0 1013219
09:00+9всв5986100 0.3 1012474
12:00+12в91272100 0.1 10081315
15:00+9всв111893100 7.1 10021054
18:00+10вюв122293100 12.3 9971388
21:00+11ююв61586100 14.6 998538
21 апреля, ср
ср2100:00+9ю8158794 0.4 999751
03:00+9ю81388100 0.6 10001035
06:00+6зюз6989100 1.7 1004832
09:00+6зюз71090100 1.8 1008862
12:00+7зюз81181100 0.1 1011942
15:00+7зюз697896 0.1 10141035
18:00+6юз5875100 0.0 1017791
21:00+6юз3780100 0.0 1019279
22 апреля, чт
чт2200:00+6ююз3581100 0.0 1020117
03:00+6ююз3576100 0.0 1021120
06:00+6ю3880100 0.0 1022255
09:00+9ю566986 0.0 1023427
12:00+13ююз444994 0.0 10231775
15:00+13ю3449100 0.0 10231638
18:00+12ююв3561100 0.0 1023285
21:00+9ю2272100 0.0 102315